TimePDT,TemperatureF,Dew PointF,Humidity,Sea Level PressureIn,VisibilityMPH,Wind Direction,Wind SpeedMPH,Gust SpeedMPH,PrecipitationIn,Events,Conditions,WindDirDegrees,DateUTC
12:15 AM,32.0,23.0,69,30.11,10.0,SW,3.5,-,N/A,,Overcast,220,2013-03-18 07:15:00
12:35 AM,32.2,23.9,72,30.10,10.0,SW,3.5,-,N/A,,Overcast,230,2013-03-18 07:35:00
12:55 AM,31.8,23.5,71,30.10,10.0,SW,4.6,-,N/A,,Overcast,220,2013-03-18 07:55:00
1:15 AM,31.1,23.0,72,30.10,10.0,SW,3.5,-,N/A,,Overcast,220,2013-03-18 08:15:00
1:35 AM,31.1,22.8,71,30.10,10.0,SSW,3.5,-,N/A,,Mostly Cloudy,200,2013-03-18 08:35:00
1:55 AM,30.9,22.6,71,30.10,10.0,SW,4.6,-,N/A,,Clear,230,2013-03-18 08:55:00
2:15 AM,30.2,22.5,73,30.10,10.0,SW,4.6,-,N/A,,Clear,230,2013-03-18 09:15:00
2:35 AM,29.7,22.8,76,30.10,10.0,SW,4.6,-,N/A,,Clear,230,2013-03-18 09:35:00
2:55 AM,30.0,23.5,77,30.11,10.0,West,4.6,-,N/A,,Mostly Cloudy,260,2013-03-18 09:55:00
3:15 AM,31.1,24.4,76,30.11,10.0,West,5.8,-,N/A,,Overcast,260,2013-03-18 10:15:00
3:35 AM,31.6,24.3,74,30.10,10.0,WSW,5.8,-,N/A,,Overcast,250,2013-03-18 10:35:00
3:55 AM,31.8,24.1,73,30.10,10.0,WSW,4.6,-,N/A,,Overcast,240,2013-03-18 10:55:00
4:15 AM,32.0,24.4,74,30.10,10.0,SW,4.6,-,N/A,,Overcast,220,2013-03-18 11:15:00
4:35 AM,32.0,23.9,72,30.10,10.0,WSW,4.6,-,N/A,,Overcast,250,2013-03-18 11:35:00
4:55 AM,32.0,23.9,72,30.10,10.0,WSW,4.6,-,N/A,,Overcast,250,2013-03-18 11:55:00
5:15 AM,32.2,23.9,72,30.10,10.0,WSW,5.8,-,N/A,,Overcast,250,2013-03-18 12:15:00
5:35 AM,32.0,23.9,72,30.10,10.0,WNW,5.8,-,N/A,,Overcast,300,2013-03-18 12:35:00
5:55 AM,32.4,23.7,70,30.10,10.0,WSW,4.6,-,N/A,,Overcast,250,2013-03-18 12:55:00
6:15 AM,31.8,24.3,74,30.11,10.0,West,3.5,-,N/A,,Overcast,270,2013-03-18 13:15:00
6:35 AM,31.5,24.3,75,30.11,10.0,West,3.5,-,N/A,,Overcast,260,2013-03-18 13:35:00
6:55 AM,30.2,23.0,75,30.12,10.0,SW,4.6,-,N/A,,Scattered Clouds,220,2013-03-18 13:55:00
7:15 AM,30.2,23.0,75,30.12,10.0,SW,4.6,-,N/A,,Scattered Clouds,230,2013-03-18 14:15:00
7:35 AM,30.2,23.0,75,30.13,10.0,SSW,3.5,-,N/A,,Scattered Clouds,210,2013-03-18 14:35:00
7:55 AM,31.5,24.4,75,30.14,10.0,South,3.5,-,N/A,,Scattered Clouds,190,2013-03-18 14:55:00
8:15 AM,32.5,24.6,73,30.14,10.0,WSW,4.6,-,N/A,,Scattered Clouds,240,2013-03-18 15:15:00
8:35 AM,33.6,23.9,68,30.14,10.0,West,3.5,-,N/A,,Clear,260,2013-03-18 15:35:00
8:55 AM,33.6,23.9,68,30.14,10.0,WSW,5.8,-,N/A,,Scattered Clouds,250,2013-03-18 15:55:00
9:15 AM,34.3,24.6,68,30.14,10.0,SW,3.5,-,N/A,,Scattered Clouds,220,2013-03-18 16:15:00
9:35 AM,35.8,25.3,66,30.14,10.0,West,8.1,-,N/A,,Mostly Cloudy,260,2013-03-18 16:35:00
9:55 AM,37.4,25.0,61,30.14,10.0,West,9.2,-,N/A,,Mostly Cloudy,260,2013-03-18 16:55:00
10:15 AM,37.0,23.7,59,30.14,10.0,West,10.4,17.3,N/A,,Scattered Clouds,280,2013-03-18 17:15:00
10:35 AM,39.0,23.7,54,30.14,10.0,West,11.5,17.3,N/A,,Clear,260,2013-03-18 17:35:00
10:55 AM,38.3,23.7,56,30.14,10.0,West,6.9,-,N/A,,Scattered Clouds,270,2013-03-18 17:55:00
11:15 AM,37.9,23.5,56,30.14,10.0,West,9.2,-,N/A,,Scattered Clouds,280,2013-03-18 18:15:00
11:35 AM,40.1,23.4,51,30.13,10.0,West,6.9,17.3,N/A,,Clear,260,2013-03-18 18:35:00
11:55 AM,41.0,23.5,50,30.13,10.0,West,10.4,16.1,N/A,,Clear,270,2013-03-18 18:55:00
12:15 PM,41.9,22.1,45,30.12,10.0,West,13.8,-,N/A,,Clear,280,2013-03-18 19:15:00
12:35 PM,43.0,22.5,44,30.12,10.0,West,13.8,21.9,N/A,,Clear,280,2013-03-18 19:35:00
12:55 PM,43.7,21.9,42,30.12,10.0,West,15.0,24.2,N/A,,Clear,280,2013-03-18 19:55:00
1:15 PM,43.3,21.4,42,30.12,10.0,West,11.5,-,N/A,,Clear,260,2013-03-18 20:15:00
1:35 PM,44.8,22.8,42,30.11,10.0,West,12.7,16.1,N/A,,Clear,270,2013-03-18 20:35:00
1:55 PM,45.5,22.5,40,30.10,10.0,WNW,10.4,-,N/A,,Clear,290,2013-03-18 20:55:00
2:15 PM,46.0,21.0,37,30.10,10.0,West,12.7,16.1,N/A,,Clear,280,2013-03-18 21:15:00
2:35 PM,47.5,21.4,36,30.10,10.0,West,10.4,16.1,N/A,,Clear,270,2013-03-18 21:35:00
2:55 PM,47.8,21.4,35,30.09,10.0,WSW,13.8,19.6,N/A,,Clear,240,2013-03-18 21:55:00
3:15 PM,48.9,20.3,32,30.08,10.0,WSW,13.8,-,N/A,,Clear,240,2013-03-18 22:15:00
3:35 PM,50.0,17.6,28,30.08,10.0,West,17.3,20.7,N/A,,Clear,270,2013-03-18 22:35:00
3:55 PM,50.2,16.0,26,30.08,10.0,West,13.8,23.0,N/A,,Clear,260,2013-03-18 22:55:00
4:15 PM,50.4,16.0,26,30.07,10.0,West,17.3,20.7,N/A,,Clear,270,2013-03-18 23:15:00
4:35 PM,50.4,13.8,23,30.07,10.0,West,16.1,20.7,N/A,,Clear,270,2013-03-18 23:35:00
4:55 PM,50.2,11.5,21,30.07,10.0,West,15.0,20.7,N/A,,Clear,270,2013-03-18 23:55:00
5:15 PM,50.5,10.2,20,30.07,10.0,West,13.8,18.4,N/A,,Clear,260,2013-03-19 00:15:00
5:35 PM,49.6,9.0,19,30.07,10.0,West,11.5,-,N/A,,Clear,270,2013-03-19 00:35:00
5:55 PM,49.3,7.2,18,30.07,10.0,West,12.7,17.3,N/A,,Clear,260,2013-03-19 00:55:00
6:15 PM,48.2,7.3,19,30.07,10.0,West,12.7,-,N/A,,Clear,280,2013-03-19 01:15:00
6:35 PM,46.0,10.2,23,30.08,10.0,West,8.1,-,N/A,,Clear,280,2013-03-19 01:35:00
6:55 PM,44.2,8.1,23,30.09,10.0,NNW,3.5,-,N/A,,Clear,330,2013-03-19 01:55:00
7:15 PM,43.3,9.0,25,30.09,10.0,Calm,Calm,-,N/A,,Clear,0,2013-03-19 02:15:00
7:35 PM,42.8,9.1,25,30.09,10.0,West,3.5,-,N/A,,Clear,280,2013-03-19 02:35:00
7:55 PM,43.3,9.9,26,30.10,10.0,Calm,Calm,-,N/A,,Clear,0,2013-03-19 02:55:00
8:15 PM,39.9,10.2,30,30.11,10.0,Calm,Calm,-,N/A,,Clear,0,2013-03-19 03:15:00
8:55 PM,38.3,11.3,33,30.12,10.0,WSW,3.5,-,N/A,,Clear,240,2013-03-19 03:55:00
9:15 PM,39.9,10.8,30,30.13,10.0,Calm,Calm,-,N/A,,Clear,0,2013-03-19 04:15:00
9:35 PM,37.8,12.6,36,30.14,10.0,Calm,Calm,-,N/A,,Clear,0,2013-03-19 04:35:00
9:55 PM,38.3,12.0,34,30.14,10.0,Calm,Calm,-,N/A,,Clear,0,2013-03-19 04:55:00
10:15 PM,38.7,12.4,34,30.14,10.0,East,3.5,-,N/A,,Clear,80,2013-03-19 05:15:00
10:35 PM,32.0,15.4,51,30.15,10.0,East,10.4,-,N/A,,Clear,100,2013-03-19 05:35:00
10:55 PM,32.0,15.4,51,30.15,10.0,ESE,10.4,-,N/A,,Clear,110,2013-03-19 05:55:00
11:15 PM,31.6,15.4,51,30.16,10.0,ESE,9.2,-,N/A,,Clear,110,2013-03-19 06:15:00
11:35 PM,31.1,14.9,51,30.16,10.0,East,5.8,-,N/A,,Clear,90,2013-03-19 06:35:00
11:55 PM,30.2,15.6,55,30.15,10.0,ESE,12.7,-,N/A,,Clear,120,2013-03-19 06:55:00